Terug naar catalogus

THORAD AGENA D DEB

ActiefLEO
NORAD 4615·DEBRIS·🇺🇸 United States

Gelanceerd Apr 8, 1970 vanaf Vandenberg Space Force Base

Loading…

Volgende Passages (komende 24 uur)

TLE

VersSource: Space-Track

Epoch: Sep 14, 2026, 15:18 UTC

1  4615U 70025T   26257.63793514  .00000190  00000-0  25820-3 0  9990
2  4615 100.1569  32.1087 0059119 243.4589 129.0955 13.72802191814919

Volg THORAD AGENA D DEB in realtime met AllMySat

Download on the App Store